Hourly Data Report for October 15, 2016

All times are specified in Local Standard Time (LST). Add 1 hour to adjust for Daylight Saving Time where and when it is observed.

HALL BEACH A
NUNAVUT

68°46'33.000" N
81°14'33.000" W
9.10 m
2402354
71293
YUX

Download Data

Hourly Data (October 2016)
Hourly Data Report for October 15, 2016
Temp Definition
°C
Dew Point Temp Definition
°C
Rel Hum Definition
%
Wind Dir Definition
10's deg

Wind Spd Definition
km/h
Visibility Definition
km
Stn Press Definition
kPa
Hmdx Definition


Wind Chill Definition


Weather Definition


TIME
00:00 Legend Double Dagger -11.5 -12.6 92 31 26 4.8 100.49   -21 Snow
01:00 Legend Double Dagger -12.7 -14.2 89 30 28 4.0 100.49   -23 Snow
02:00 Legend Double Dagger -12.7 -13.7 92 31 32 1.6 100.51   -23 Snow
03:00 Legend Double Dagger -13.9 -15.3 89 31 30 6.4 100.56   -25 Snow
04:00 Legend Double Dagger -14.0 -15.3 90 31 26 16.1 100.58   -24 LegendNANA
05:00 Legend Double Dagger -13.7 -15.0 90 30 26 4.8 100.60   -24 Snow
06:00 Legend Double Dagger -15.6 -17.2 88 31 26 16.1 100.60   -26 LegendNANA
07:00 Legend Double Dagger -13.4 -14.7 90 31 21 14.5 100.62   -22 LegendNANA
08:00 Legend Double Dagger -12.1 -13.2 91 31 18 11.3 100.64   -20 LegendNANA
09:00 Legend Double Dagger -14.5 -16.0 89 30 21 16.1 100.66   -24 LegendNANA
10:00 Legend Double Dagger -13.8 -15.2 89 31 18 16.1 100.69   -22 LegendNANA
11:00 Legend Double Dagger -13.3 -14.8 89 29 17 16.1 100.74   -21 LegendNANA
12:00 Legend Double Dagger -12.8 -14.3 89 28 17 16.1 100.78   -21 LegendNANA
13:00 Legend Double Dagger -12.5 -13.8 90 26 18 16.1 100.81   -21 LegendNANA
14:00 Legend Double Dagger -11.0 -12.3 90 28 18 16.1 100.85   -19 LegendNANA
15:00 Legend Double Dagger -11.4 -13.3 86 26 11 16.1 100.92   -17 LegendNANA
16:00 Legend Double Dagger -12.9 -14.5 88 27 17 16.1 100.95   -21 LegendNANA
17:00 Legend Double Dagger -14.2 -15.6 89 28 17 16.1 100.98   -22 LegendNANA
18:00 Legend Double Dagger -14.7 -16.3 88 27 18 16.1 101.02   -23 LegendNANA
19:00 Legend Double Dagger -15.4 -16.7 90 27 17 9.7 101.05   -24 Fog
20:00 Legend Double Dagger -15.1 -16.7 88 27 21 16.1 101.08   -25 LegendNANA
21:00 Legend Double Dagger -15.7 -17.3 88 28 17 16.1 101.12   -24 LegendNANA
22:00 Legend Double Dagger -15.3 -17.1 86 26 15 16.1 101.15   -23 LegendNANA
23:00 Legend Double Dagger -15.6 -17.2 88 26 18 16.1 101.18   -24 LegendNANA

Notes on Data Quality.

Legend

  • E = Estimated
  • M = Missing
  • NA = Not Available
  • ‡ = Partner data that is not subject to review by the National Climate Archives
Date modified: